Weather History for EHRD - November, 2014

Change the Weather History Date:

Monday, November 24, 2014

  Actual Average Record
Temperature  
Mean Temperature 42 °F -  
Max Temperature 52 °F 43 °F 55 °F (2006)
Min Temperature 33 °F 35 °F 21 °F (1998)
Degree Days  
Heating Degree Days 22    
Moisture  
Dew Point 41 °F    
Average Humidity 88    
Maximum Humidity 100    
Minimum Humidity 61    
Precipitation  
Precipitation 0.00 in - - ()
Sea Level Pressure  
Sea Level Pressure 30.24 in    
Wind  
Wind Speed 5 mph ()    
Max Wind Speed 10 mph    
Max Gust Speed -    
Visibility 8.2 miles    
Events Fog , Rain    
Averages and records for this station are not official NWS values.
T = Trace of Precipitation, MM = Missing Value Source: Averaged Metar Reports

Daily Weather History Graph

Daily Weather History Graph

Search for Another Location

Airport or City:

Trip Planner

Search our weather history database for the weather conditions in past years. The results will help you decide how hot, cold, wet, or windy it might be!

Date:

Astronomy

Nov. 24, 2014 Rise Set
Actual Time 8:16 AM CET 4:40 PM CET
Civil Twilight 7:38 AM CET 5:19 PM CET
Nautical Twilight 6:55 AM CET 6:01 PM CET
Astronomical Twilight 6:15 AM CET 6:41 PM CET
Moon 9:53 AM CET (11/24) 6:48 PM CET (11/24)
Length of Visible Light 9h 41m
Length of Day
8h 23m
Waxing Crescent, 5% of the Moon is Illuminated
Nov 24
Waxing Crescent
Nov 29
First Quarter
Dec 6
Full
Dec 14
Last Quarter
Dec 22
New

Hourly Weather History & Observations

Time (CET) Temp. Windchill Dew Point Humidity Pressure Visibility Wind Dir Wind Speed Gust Speed Precip Events Conditions
12:00 AM 49 °F - 49 °F 98% 30.05 in 4 mi NNW 6.7 mph - - Rain Light Rain
12:25 AM 50.0 °F - 48.2 °F 94% 30.04 in 6.2 mi NW 10.4 mph - N/A Rain Rain Showers
12:55 AM 48.2 °F - 46.4 °F 93% 30.04 in 6.2 mi NNW 6.9 mph - N/A Rain Light Rain
1:00 AM 48 °F - 47 °F 96% 30.06 in 11 mi NNW 6.7 mph - - Rain Drizzle
1:25 AM 48.2 °F - 46.4 °F 93% 30.06 in 6.2 mi NW 5.8 mph - N/A Rain Light Drizzle
1:55 AM 48.2 °F - 46.4 °F 93% 30.06 in 6.2 mi WNW 4.6 mph - N/A Rain Light Rain
2:00 AM 47 °F - 46 °F 97% 30.08 in 18 mi WNW 4.5 mph - - Rain Light Rain
2:25 AM 48.2 °F - 46.4 °F 93% 30.06 in 6.2 mi WNW 5.8 mph - N/A Rain Light Rain Showers
2:55 AM 48.2 °F - 46.4 °F 93% 30.09 in 6.2 mi NW 8.1 mph - N/A   Overcast
3:00 AM 47 °F - 45 °F 91% 30.11 in 22 mi NW 6.7 mph - - Rain Rain
3:25 AM 46.4 °F 43.5 °F 44.6 °F 93% 30.09 in 6.2 mi WNW 5.8 mph - N/A   Mostly Cloudy
3:55 AM 48.2 °F - 44.6 °F 87% 30.12 in 6.2 mi WNW 9.2 mph - N/A   Mostly Cloudy
4:00 AM 47 °F - 44 °F 87% 30.14 in 25 mi WNW 6.7 mph - - Rain Drizzle
4:25 AM 46.4 °F 42.4 °F 44.6 °F 93% 30.12 in 6.2 mi WNW 8.1 mph - N/A   Heavy Drizzle
4:55 AM 46.4 °F 44.3 °F 44.6 °F 93% 30.15 in 6.2 mi West 4.6 mph - N/A Rain Heavy Drizzle
5:00 AM 46 °F - 44 °F 88% 30.16 in 17 mi West 4.5 mph - - Rain Rain
5:25 AM 44.6 °F 43.1 °F 42.8 °F 93% 30.15 in 6.2 mi West 3.5 mph - N/A   Partly Cloudy
5:55 AM 42.8 °F 40.1 °F 41.0 °F 93% 30.15 in 6.2 mi West 4.6 mph - N/A   Unknown
6:00 AM 42 °F - 41 °F 93% 30.18 in 16 mi WNW 4.5 mph - -   Partly Cloudy
6:25 AM 41.0 °F 38.0 °F 39.2 °F 93% 30.18 in 6.2 mi WNW 4.6 mph - N/A   Scattered Clouds
6:55 AM 39.2 °F 35.9 °F 35.6 °F 87% 30.18 in 6.2 mi WNW 4.6 mph - N/A   Partly Cloudy
7:00 AM 39 °F - 37 °F 90% 30.20 in 17 mi WNW 4.5 mph - -   Partly Cloudy
7:25 AM 41.0 °F 39.0 °F 37.4 °F 87% 30.21 in 6.2 mi West 3.5 mph - N/A   Partly Cloudy
7:55 AM 39.2 °F 37.0 °F 37.4 °F 93% 30.21 in 6.2 mi WSW 3.5 mph - N/A   Unknown
8:00 AM 40 °F - 38 °F 88% 30.23 in 17 mi WSW 4.5 mph - -  
8:25 AM 37.4 °F 34.9 °F 35.6 °F 93% 30.21 in 6.2 mi WSW 3.5 mph - N/A   Unknown
8:55 AM 39.2 °F 37.0 °F 37.4 °F 93% 30.24 in 6.2 mi WSW 3.5 mph - N/A   Unknown
9:00 AM 40 °F - 38 °F 91% 30.24 in 14 mi SW 2.2 mph - -   Scattered Clouds
9:25 AM 41.0 °F 39.0 °F 39.2 °F 93% 30.24 in 6.2 mi SW 3.5 mph - N/A   Unknown
9:55 AM 42.8 °F 41.1 °F 41.0 °F 93% 30.24 in 6.2 mi SW 3.5 mph - N/A   Unknown
10:00 AM 44 °F - 42 °F 90% 30.27 in 15 mi SW 4.5 mph - -  
10:25 AM 48.2 °F - 42.8 °F 82% 30.27 in 6.2 mi WSW 3.5 mph - N/A   Unknown
10:55 AM 50.0 °F - 42.8 °F 76% 30.27 in 6.2 mi West 4.6 mph - N/A   Unknown
11:00 AM 51 °F - 42 °F 64% 30.29 in 14 mi West 4.5 mph - -  
11:25 AM 51.8 °F - 41.0 °F 67% 30.27 in 6.2 mi West 3.5 mph - N/A   Unknown
11:55 AM 51.8 °F - 42.8 °F 71% 30.27 in 6.2 mi West 5.8 mph - N/A   Partly Cloudy
12:00 PM 51 °F - 43 °F 66% 30.30 in 19 mi West 6.7 mph - -   Mostly Cloudy
12:25 PM 51.8 °F - 42.8 °F 71% 30.27 in 6.2 mi WSW 5.8 mph - N/A   Mostly Cloudy
12:55 PM 51.8 °F - 41.0 °F 67% 30.27 in 6.2 mi West 6.9 mph - N/A   Mostly Cloudy
1:00 PM 51 °F - 42 °F 63% 30.30 in 19 mi West 6.7 mph - -   Partly Cloudy
1:25 PM 51.8 °F - 42.8 °F 71% 30.27 in 6.2 mi West 4.6 mph - N/A   Scattered Clouds
1:55 PM 51.8 °F - 41.0 °F 67% 30.27 in 6.2 mi West 8.1 mph - N/A   Mostly Cloudy
2:00 PM 52 °F - 43 °F 61% 30.30 in 19 mi WSW 8.9 mph - -   Partly Cloudy
2:25 PM 51.8 °F - 42.8 °F 71% 30.27 in 6.2 mi West 8.1 mph - N/A   Partly Cloudy
2:55 PM 51.8 °F - 41.0 °F 67% 30.27 in 6.2 mi West 6.9 mph - N/A   Unknown
3:00 PM 51 °F - 42 °F 63% 30.30 in 19 mi West 6.7 mph - -   Overcast
3:25 PM 48.2 °F - 41.0 °F 76% 30.30 in 6.2 mi WNW 6.9 mph - N/A   Unknown
3:55 PM 46.4 °F 43.5 °F 41.0 °F 81% 30.30 in 6.2 mi West 5.8 mph - N/A   Unknown
4:00 PM 46 °F - 40 °F 72% 30.31 in 19 mi West 4.5 mph - -  
4:25 PM 44.6 °F 43.1 °F 39.2 °F 81% 30.30 in 6.2 mi West 3.5 mph - N/A   Unknown
4:55 PM 42.8 °F 41.1 °F 39.2 °F 87% 30.30 in 6.2 mi WNW 3.5 mph - N/A   Unknown
5:00 PM 42 °F - 39 °F 84% 30.32 in 18 mi WNW 2.2 mph - -  
5:25 PM 41.0 °F 39.0 °F 39.2 °F 93% 30.30 in 6.2 mi WSW 3.5 mph - N/A   Unknown
5:55 PM 41.0 °F 39.0 °F 39.2 °F 93% 30.30 in 6.2 mi SW 3.5 mph - N/A   Unknown
6:00 PM 40 °F - 39 °F 94% 30.32 in 12 mi SW 4.5 mph - -   Scattered Clouds
6:25 PM 39.2 °F - 39.2 °F 100% 30.33 in 6.2 mi Variable 2.3 mph - N/A   Unknown
6:55 PM 39.2 °F - 39.2 °F 100% 30.33 in 6.2 mi SSW 2.3 mph - N/A   Unknown
7:00 PM 40 °F - 38 °F 92% 30.33 in 8 mi South 2.2 mph - -   Partly Cloudy
7:25 PM 39.2 °F - 39.2 °F 100% 30.33 in 6.2 mi SSE 1.2 mph - N/A   Unknown
7:55 PM 39.2 °F - 39.2 °F 100% 30.33 in 6.2 mi Variable 1.2 mph - N/A   Unknown
8:00 PM 38 °F - 38 °F 98% 30.34 in 5 mi South 2.2 mph - -   Mist
8:25 PM 39.2 °F - 37.4 °F 93% 30.33 in 6.2 mi South 2.3 mph - N/A   Unknown
8:55 PM 37.4 °F - 37.4 °F 100% 30.33 in 6.2 mi SSE 2.3 mph - N/A   Unknown
9:00 PM 38 °F - 37 °F 97% 30.35 in 7 mi SSE 2.2 mph - -  
9:25 PM 37.4 °F - 37.4 °F 100% 30.33 in 6.2 mi South 1.2 mph - N/A   Unknown
9:55 PM 37.4 °F - 37.4 °F 100% 30.33 in 3.7 mi South 1.2 mph - N/A   Unknown
10:00 PM 37 °F - 37 °F 99% 30.34 in 6 mi South 2.2 mph - -   Mist
10:25 PM 37.4 °F - 37.4 °F 100% 30.33 in 0.4 mi South 1.2 mph - N/A Fog Fog
10:55 PM 35.6 °F - 35.6 °F 100% 30.33 in 0.6 mi South 1.2 mph - N/A   Mist
11:00 PM 35 °F - 35 °F 98% 30.35 in 0 mi Calm Calm - - Fog Fog
11:25 PM 33.8 °F - 33.8 °F 100% 30.33 in - NNW 2.3 mph - N/A   Mist
11:55 PM 33.8 °F - 33.8 °F 100% 30.33 in 0.3 mi North 1.2 mph - N/A Fog Fog